| time (UTC) | temp F | wind direction | speed knots | gust knots | rain 1hr in | rain 24hr in | rain mn in | humidity % | barometer mb |
| 20260507193037 | 68 | 355 | 10.4 | 15.6 | 0.00 | 0.00 | 0.00 | 32 | 923.1 |
| 20260507191522 | 66 | 315 | 8.7 | 13.0 | 0.00 | 0.00 | 0.00 | 33 | 923.2 |
| 20260507190014 | 66 | 320 | 7.8 | 15.6 | 0.00 | 0.00 | 0.00 | 32 | 923.2 |
| 20260507184556 | 67 | 304 | 7.0 | 16.5 | 0.00 | 0.00 | 0.00 | 31 | 923.2 |
| 20260507183055 | 68 | 338 | 13.0 | 20.0 | 0.00 | 0.00 | 0.00 | 32 | 923.3 |
| 20260507181534 | 67 | 323 | 13.0 | 19.1 | 0.00 | 0.00 | 0.00 | 35 | 923.5 |
| 20260507180036 | 65 | 330 | 13.0 | 19.1 | 0.00 | 0.00 | 0.00 | 37 | 923.7 |
| 20260507174517 | 67 | 340 | 12.2 | 18.2 | 0.00 | 0.00 | 0.00 | 37 | 923.6 |
| 20260507173025 | 65 | 325 | 12.2 | 21.7 | 0.00 | 0.00 | 0.00 | 39 | 923.8 |
| 20260507171608 | 67 | 336 | 11.3 | 17.4 | 0.00 | 0.00 | 0.00 | 37 | 923.9 |
| 20260507171502 | 67 | 344 | 13.0 | 19.1 | 0.00 | 0.00 | 0.00 | 37 | 923.9 |
| 20260507170110 | 66 | 331 | 13.9 | 23.5 | 0.00 | 0.00 | 0.00 | 38 | 923.8 |
| 20260507164541 | 63 | 336 | 7.0 | 11.3 | 0.00 | 0.00 | 0.00 | 41 | 924.0 |
| 20260507163031 | 62 | 200 | 5.2 | 9.6 | 0.00 | 0.00 | 0.00 | 42 | 924.0 |
| 20260507161510 | 60 | 248 | 3.5 | 7.0 | 0.00 | 0.00 | 0.00 | 45 | 924.2 |
| 20260507160006 | 57 | 231 | 5.2 | 7.8 | 0.00 | 0.00 | 0.00 | 47 | 924.3 |
| 20260507154551 | 55 | 221 | 4.3 | 8.7 | 0.00 | 0.00 | 0.00 | 50 | 924.3 |
| 20260507153042 | 53 | 198 | 5.2 | 7.0 | 0.00 | 0.00 | 0.00 | 51 | 924.4 |
| 20260507151520 | 52 | 183 | 6.1 | 8.7 | 0.00 | 0.00 | 0.00 | 48 | 924.6 |
| 20260507150018 | 51 | 180 | 5.2 | 7.8 | 0.00 | 0.00 | 0.00 | 49 | 924.6 |
| 20260507144602 | 50 | 5 | 1.7 | 5.2 | 0.00 | 0.00 | 0.00 | 50 | 924.8 |
| 20260507143114 | 49 | 15 | 2.6 | 7.0 | 0.00 | 0.00 | 0.00 | 50 | 924.7 |
| 20260507141550 | 49 | 21 | 7.8 | 10.4 | 0.00 | 0.00 | 0.00 | 50 | 924.8 |
| 20260507140040 | 49 | 335 | 6.1 | 9.6 | 0.00 | 0.00 | 0.00 | 52 | 924.7 |
| 20260507134520 | 51 | 355 | 7.8 | 10.4 | 0.00 | 0.00 | 0.00 | 52 | 924.7 |
| 20260507133016 | 48 | 311 | 7.0 | 9.6 | 0.00 | 0.00 | 0.00 | 51 | 924.3 |
| 20260507131555 | 47 | 309 | 5.2 | 7.8 | 0.00 | 0.00 | 0.00 | 50 | 924.4 |
| 20260507130052 | 46 | 19 | 2.6 | 8.7 | 0.00 | 0.00 | 0.00 | 52 | 924.3 |
| 20260507124531 | 44 | 323 | 7.8 | 10.4 | 0.00 | 0.00 | 0.00 | 54 | 924.4 |
| 20260507123037 | 44 | 296 | 7.0 | 9.6 | 0.00 | 0.00 | 0.00 | 54 | 924.2 |
| 20260507121511 | 44 | 300 | 7.0 | 10.4 | 0.00 | 0.00 | 0.00 | 55 | 924.1 |
| 20260507120026 | 42 | 309 | 7.0 | 9.6 | 0.00 | 0.00 | 0.00 | 58 | 923.9 |
| 20260507114558 | 42 | 310 | 7.0 | 8.7 | 0.00 | 0.00 | 0.00 | 57 | 923.9 |
| 20260507113053 | 42 | 306 | 6.1 | 9.6 | 0.00 | 0.00 | 0.00 | 55 | 923.8 |
| 20260507111531 | 43 | 286 | 5.2 | 9.6 | 0.00 | 0.00 | 0.00 | 55 | 923.7 |
| 20260507110036 | 44 | 288 | 6.1 | 7.8 | 0.00 | 0.00 | 0.00 | 55 | 923.8 |
| 20260507104515 | 44 | 267 | 6.1 | 8.7 | 0.00 | 0.00 | 0.00 | 56 | 923.7 |
| 20260507103013 | 44 | 223 | 7.0 | 8.7 | 0.00 | 0.00 | 0.00 | 56 | 923.8 |
| 20260507101559 | 43 | 244 | 6.1 | 8.7 | 0.00 | 0.00 | 0.00 | 58 | 923.7 |
| 20260507100050 | 44 | 221 | 6.1 | 8.7 | 0.00 | 0.00 | 0.00 | 57 | 923.4 |
| 20260507094532 | 44 | 355 | 3.5 | 5.2 | 0.00 | 0.00 | 0.00 | 56 | 923.5 |
| 20260507093030 | 44 | 19 | 6.1 | 8.7 | 0.00 | 0.00 | 0.00 | 57 | 923.6 |
| 20260507091510 | 44 | 13 | 7.0 | 8.7 | 0.00 | 0.00 | 0.00 | 57 | 923.5 |
| 20260507090009 | 44 | 9 | 7.0 | 9.6 | 0.00 | 0.00 | 0.00 | 56 | 923.3 |
| 20260507084555 | 44 | 26 | 6.1 | 8.7 | 0.00 | 0.00 | 0.00 | 57 | 923.1 |
| 20260507083051 | 44 | 10 | 5.2 | 8.7 | 0.00 | 0.00 | 0.00 | 58 | 923.1 |
| 20260507081542 | 43 | 37 | 5.2 | 7.8 | 0.00 | 0.00 | 0.00 | 59 | 923.2 |
| 20260507080036 | 43 | 36 | 6.1 | 8.7 | 0.00 | 0.00 | 0.00 | 59 | 923.1 |
| 20260507074538 | 44 | 23 | 5.2 | 6.1 | 0.00 | 0.00 | 0.00 | 58 | 923.0 |
| 20260507073030 | 47 | 35 | 4.3 | 6.1 | 0.00 | 0.00 | 0.00 | 55 | 923.1 |
| 20260507071535 | 47 | 80 | 3.5 | 4.3 | 0.00 | 0.00 | 0.00 | 55 | 923.1 |
| 20260507070033 | 48 | 86 | 4.3 | 7.0 | 0.00 | 0.00 | 0.00 | 55 | 923.1 |
| 20260507064537 | 49 | 47 | 6.1 | 11.3 | 0.00 | 0.00 | 0.00 | 55 | 923.1 |
| 20260507063027 | 52 | 51 | 9.6 | 13.9 | 0.00 | 0.00 | 0.00 | 49 | 923.0 |
| 20260507061533 | 54 | 66 | 10.4 | 15.6 | 0.00 | 0.00 | 0.00 | 47 | 923.3 |
| 20260507060009 | 55 | 73 | 5.2 | 12.2 | 0.00 | 0.00 | 0.00 | 46 | 923.2 |
| 20260507054532 | 56 | 74 | 12.2 | 14.8 | 0.00 | 0.00 | 0.00 | 35 | 922.7 |
| 20260507053039 | 55 | 79 | 10.4 | 12.2 | 0.00 | 0.00 | 0.00 | 36 | 922.7 |
| 20260507051538 | 54 | 66 | 5.2 | 13.9 | 0.00 | 0.00 | 0.00 | 36 | 922.8 |
| 20260507050021 | 53 | 75 | 7.8 | 12.2 | 0.00 | 0.00 | 0.00 | 37 | 922.6 |
| 20260507044519 | 53 | 65 | 7.0 | 7.0 | 0.00 | 0.00 | 0.00 | 36 | 922.8 |
| 20260507043002 | 54 | 67 | 5.2 | 7.8 | 0.00 | 0.00 | 0.00 | 36 | 922.8 |
| 20260507041501 | 55 | 83 | 0.9 | 4.3 | 0.00 | 0.00 | 0.00 | 33 | 923.0 |
| 20260507040043 | 55 | 107 | 5.2 | 7.0 | 0.00 | 0.00 | 0.00 | 33 | 923.1 |
| 20260507034557 | 55 | 307 | 1.7 | 4.3 | 0.00 | 0.00 | 0.00 | 33 | 923.3 |
| 20260507033025 | 55 | 94 | 0.9 | 5.2 | 0.00 | 0.00 | 0.00 | 33 | 922.8 |
| 20260507031524 | 54 | 78 | 5.2 | 7.0 | 0.00 | 0.00 | 0.00 | 36 | 922.5 |
| 20260507030008 | 54 | 86 | 7.0 | 8.7 | 0.00 | 0.00 | 0.00 | 36 | 922.4 |
| 20260507024508 | 56 | 84 | 7.8 | 8.7 | 0.00 | 0.00 | 0.00 | 34 | 922.3 |
| 20260507023007 | 58 | 82 | 3.5 | 8.7 | 0.00 | 0.00 | 0.00 | 34 | 922.4 |
| 20260507021506 | 61 | 107 | 5.2 | 7.0 | 0.00 | 0.00 | 0.00 | 28 | 922.3 |
| 20260507020005 | 62 | 100 | 1.7 | 6.1 | 0.00 | 0.00 | 0.00 | 28 | 922.4 |
| 20260507014505 | 62 | 97 | 5.2 | 7.0 | 0.00 | 0.00 | 0.00 | 28 | 922.5 |
| 20260507013006 | 64 | 81 | 6.1 | 7.8 | 0.00 | 0.00 | 0.00 | 28 | 922.6 |
| 20260507011504 | 66 | 65 | 3.5 | 7.0 | 0.00 | 0.00 | 0.00 | 23 | 922.6 |
| 20260507010048 | 68 | 53 | 4.3 | 8.7 | 0.00 | 0.00 | 0.00 | 22 | 922.8 |
| 20260507004542 | 69 | 19 | 5.2 | 10.4 | 0.00 | 0.00 | 0.00 | 21 | 922.8 |
| 20260507003029 | 70 | 309 | 2.6 | 4.3 | 0.00 | 0.00 | 0.00 | 21 | 922.8 |
| 20260507001530 | 70 | 288 | 4.3 | 5.2 | 0.00 | 0.00 | 0.00 | 22 | 923.0 |
| 20260507000029 | 69 | 248 | 5.2 | 7.8 | 0.00 | 0.00 | 0.00 | 21 | 923.0 |
| 20260506234543 | 69 | 253 | 6.1 | 11.3 | 0.00 | 0.00 | 0.00 | 21 | 923.1 |
| 20260506233023 | 70 | 304 | 8.7 | 11.3 | 0.00 | 0.00 | 0.00 | 21 | 923.3 |
| 20260506231520 | 70 | 317 | 8.7 | 12.2 | 0.00 | 0.00 | 0.00 | 21 | 923.5 |
| 20260506230019 | 70 | 263 | 7.0 | 12.2 | 0.00 | 0.00 | 0.00 | 19 | 923.7 |
| 20260506224525 | 69 | 320 | 6.1 | 11.3 | 0.00 | 0.00 | 0.00 | 20 | 924.0 |
| 20260506223059 | 69 | 55 | 2.6 | 12.2 | 0.00 | 0.00 | 0.00 | 20 | 924.2 |
| 20260506221553 | 68 | 242 | 5.2 | 12.2 | 0.00 | 0.00 | 0.00 | 20 | 924.5 |
| 20260506220040 | 68 | 301 | 9.6 | 14.8 | 0.00 | 0.00 | 0.00 | 21 | 924.7 |
| 20260506214529 | 67 | 273 | 6.1 | 15.6 | 0.00 | 0.00 | 0.00 | 21 | 924.8 |
| 20260506213009 | 67 | 260 | 3.5 | 16.5 | 0.00 | 0.00 | 0.00 | 22 | 925.1 |
| 20260506211513 | 66 | 296 | 10.4 | 17.4 | 0.00 | 0.00 | 0.00 | 22 | 925.3 |
| 20260506210047 | 65 | 293 | 8.7 | 12.2 | 0.00 | 0.00 | 0.00 | 23 | 925.5 |
| 20260506204545 | 65 | 340 | 1.7 | 8.7 | 0.00 | 0.00 | 0.00 | 22 | 925.6 |
| 20260506203025 | 63 | 229 | 4.3 | 15.6 | 0.00 | 0.00 | 0.00 | 23 | 925.9 |
| 20260506201521 | 63 | 263 | 7.8 | 17.4 | 0.00 | 0.00 | 0.00 | 23 | 926.2 |
| 20260506200003 | 62 | 225 | 6.1 | 18.2 | 0.00 | 0.00 | 0.00 | 23 | 926.4 |
| 20260506194600 | 61 | 298 | 3.5 | 14.8 | 0.00 | 0.00 | 0.00 | 23 | 926.6 |